| time (UTC) | temp C | wind direction | speed KPH | gust KPH | rain 1hr cm | rain 24hr cm | rain mn cm | humidity % | barometer mb |
| 20260508023818 | 11 | 292 | 4.8 | 8.0 | 0.00 | 0.00 | 0.00 | ||
| 20260508023410 | 11 | 292 | 6.4 | 11.3 | 0.00 | 0.00 | 0.00 | ||
| 20260508023008 | 11 | 292 | 4.8 | 6.4 | 0.00 | 0.00 | 0.00 | ||
| 20260508022607 | 11 | 289 | 3.2 | 6.4 | 0.00 | 0.00 | 0.00 | ||
| 20260508022205 | 11 | 292 | 4.8 | 6.4 | 0.00 | 0.00 | 0.00 | ||
| 20260508021803 | 11 | 292 | 0.0 | 3.2 | 0.00 | 0.00 | 0.00 | ||
| 20260508021402 | 11 | 292 | 0.0 | 3.2 | 0.00 | 0.00 | 0.00 | ||
| 20260508021000 | 11 | 292 | 0.0 | 1.6 | 0.00 | 0.00 | 0.00 | ||
| 20260508020558 | 11 | 292 | 1.6 | 3.2 | 0.00 | 0.00 | 0.00 | ||
| 20260508020157 | 11 | 292 | 3.2 | 4.8 | 0.00 | 0.00 | 0.00 | ||
| 20260508015755 | 11 | 292 | 0.0 | 3.2 | 0.00 | 0.00 | 0.00 | ||
| 20260508015347 | 11 | 292 | 1.6 | 4.8 | 0.00 | 0.00 | 0.00 | ||
| 20260508014944 | 12 | 292 | 1.6 | 6.4 | 0.00 | 0.00 | 0.00 | ||
| 20260508014543 | 11 | 292 | 4.8 | 8.0 | 0.00 | 0.00 | 0.00 | ||
| 20260508014142 | 12 | 311 | 3.2 | 4.8 | 0.00 | 0.00 | 0.00 | ||
| 20260508013740 | 12 | 315 | 1.6 | 3.2 | 0.00 | 0.00 | 0.00 | ||
| 20260508013338 | 12 | 315 | 0.0 | 3.2 | 0.00 | 0.00 | 0.00 | ||
| 20260508012936 | 11 | 315 | 0.0 | 0.0 | 0.00 | 0.00 | 0.00 | ||
| 20260508012535 | 12 | 315 | 0.0 | 0.0 | 0.00 | 0.00 | 0.00 | ||
| 20260508012134 | 11 | 315 | 0.0 | 0.0 | 0.00 | 0.00 | 0.00 | ||
| 20260508011732 | 11 | 315 | 0.0 | 1.6 | 0.00 | 0.00 | 0.00 | ||
| 20260508011323 | 11 | 315 | 0.0 | 3.2 | 0.00 | 0.00 | 0.00 | ||
| 20260508010921 | 11 | 315 | 1.6 | 3.2 | 0.00 | 0.00 | 0.00 | ||
| 20260508010520 | 11 | 315 | 1.6 | 4.8 | 0.00 | 0.00 | 0.00 | ||
| 20260508010119 | 11 | 313 | 6.4 | 11.3 | 0.00 | 0.00 | 0.00 | ||
| 20260508005716 | 11 | 302 | 6.4 | 14.5 | 0.00 | 0.00 | 0.00 | ||
| 20260508005315 | 11 | 292 | 3.2 | 8.0 | 0.00 | 0.00 | 0.00 | ||
| 20260508004913 | 11 | 313 | 4.8 | 12.9 | 0.00 | 0.00 | 0.00 | ||
| 20260508004513 | 11 | 308 | 6.4 | 12.9 | 0.00 | 0.00 | 0.00 | ||
| 20260508004110 | 11 | 321 | 4.8 | 9.7 | 0.00 | 0.00 | 0.00 | ||
| 20260508003708 | 11 | 303 | 4.8 | 9.7 | 0.00 | 0.00 | 0.00 | ||
| 20260508003300 | 11 | 315 | 4.8 | 9.7 | 0.00 | 0.00 | 0.00 | ||
| 20260508002858 | 11 | 296 | 6.4 | 9.7 | 0.00 | 0.00 | 0.00 | ||
| 20260508002456 | 11 | 308 | 4.8 | 8.0 | 0.00 | 0.00 | 0.00 | ||
| 20260508002055 | 11 | 292 | 4.8 | 6.4 | 0.00 | 0.00 | 0.00 | ||
| 20260508001653 | 11 | 292 | 4.8 | 8.0 | 0.00 | 0.00 | 0.00 | ||
| 20260508001252 | 12 | 292 | 0.0 | 3.2 | 0.00 | 0.00 | 0.00 | ||
| 20260508000850 | 12 | 292 | 1.6 | 6.4 | 0.00 | 0.00 | 0.00 | ||
| 20260508000450 | 11 | 292 | 4.8 | 8.0 | 0.00 | 0.00 | 0.00 | ||
| 20260508000047 | 12 | 311 | 3.2 | 6.4 | 0.00 | 0.00 | 0.00 | ||
| 20260507235646 | 11 | 293 | 4.8 | 8.0 | 0.00 | 0.00 | 0.00 | ||
| 20260507235238 | 11 | 307 | 4.8 | 11.3 | 0.00 | 0.00 | 0.00 | ||
| 20260507234835 | 12 | 297 | 4.8 | 12.9 | 0.00 | 0.00 | 0.00 | ||
| 20260507234434 | 12 | 296 | 8.0 | 11.3 | 0.00 | 0.00 | 0.00 | ||
| 20260507234033 | 12 | 297 | 8.0 | 14.5 | 0.00 | 0.00 | 0.00 | ||
| 20260507233631 | 12 | 293 | 8.0 | 16.1 | 0.00 | 0.00 | 0.00 | ||
| 20260507233229 | 12 | 292 | 6.4 | 12.9 | 0.00 | 0.00 | 0.00 | ||
| 20260507232827 | 12 | 292 | 6.4 | 11.3 | 0.00 | 0.00 | 0.00 | ||
| 20260507232426 | 12 | 292 | 9.7 | 12.9 | 0.00 | 0.00 | 0.00 | ||
| 20260507232025 | 12 | 292 | 6.4 | 9.7 | 0.00 | 0.00 | 0.00 | ||
| 20260507231622 | 12 | 284 | 6.4 | 11.3 | 0.00 | 0.00 | 0.00 | ||
| 20260507231214 | 12 | 292 | 6.4 | 9.7 | 0.00 | 0.00 | 0.00 | ||
| 20260507230812 | 12 | 304 | 4.8 | 9.7 | 0.00 | 0.00 | 0.00 | ||
| 20260507230411 | 12 | 338 | 3.2 | 6.4 | 0.00 | 0.00 | 0.00 | ||
| 20260507230010 | 12 | 338 | 4.8 | 6.4 | 0.00 | 0.00 | 0.00 | ||
| 20260507225607 | 12 | 338 | 0.0 | 3.2 | 0.00 | 0.00 | 0.00 | ||
| 20260507225206 | 12 | 338 | 0.0 | 0.0 | 0.00 | 0.00 | 0.00 | ||
| 20260507224804 | 12 | 338 | 1.6 | 3.2 | 0.00 | 0.00 | 0.00 | ||
| 20260507224403 | 12 | 338 | 3.2 | 4.8 | 0.00 | 0.00 | 0.00 | ||
| 20260507224001 | 12 | 338 | 3.2 | 6.4 | 0.00 | 0.00 | 0.00 | ||
| 20260507223559 | 12 | 338 | 4.8 | 8.0 | 0.00 | 0.00 | 0.00 | ||
| 20260507223151 | 12 | 315 | 3.2 | 6.4 | 0.00 | 0.00 | 0.00 | ||
| 20260507222750 | 12 | 315 | 3.2 | 8.0 | 0.00 | 0.00 | 0.00 | ||
| 20260507222347 | 12 | 335 | 4.8 | 8.0 | 0.00 | 0.00 | 0.00 | ||
| 20260507221946 | 12 | 316 | 6.4 | 11.3 | 0.00 | 0.00 | 0.00 | ||
| 20260507221544 | 12 | 329 | 6.4 | 9.7 | 0.00 | 0.00 | 0.00 | ||
| 20260507221143 | 12 | 357 | 3.2 | 9.7 | 0.00 | 0.00 | 0.00 | ||
| 20260507220740 | 12 | 0 | 3.2 | 6.4 | 0.00 | 0.00 | 0.00 | ||
| 20260507220339 | 12 | 357 | 3.2 | 6.4 | 0.00 | 0.00 | 0.00 | ||
| 20260507215938 | 12 | 326 | 6.4 | 11.3 | 0.00 | 0.00 | 0.00 | ||
| 20260507215536 | 12 | 321 | 6.4 | 12.9 | 0.00 | 0.00 | 0.00 | ||
| 20260507215127 | 12 | 315 | 6.4 | 11.3 | 0.00 | 0.00 | 0.00 | ||
| 20260507214724 | 12 | 292 | 4.8 | 8.0 | 0.00 | 0.00 | 0.00 | ||
| 20260507214323 | 12 | 292 | 4.8 | 8.0 | 0.00 | 0.00 | 0.00 | ||
| 20260507213922 | 12 | 292 | 3.2 | 8.0 | 0.00 | 0.00 | 0.00 | ||
| 20260507213521 | 12 | 289 | 6.4 | 11.3 | 0.00 | 0.00 | 0.00 | ||
| 20260507213118 | 13 | 292 | 6.4 | 8.0 | 0.00 | 0.00 | 0.00 | ||
| 20260507212717 | 13 | 289 | 6.4 | 8.0 | 0.00 | 0.00 | 0.00 | ||
| 20260507212316 | 13 | 290 | 6.4 | 9.7 | 0.00 | 0.00 | 0.00 | ||
| 20260507211914 | 13 | 291 | 8.0 | 14.5 | 0.00 | 0.00 | 0.00 | ||
| 20260507211511 | 13 | 290 | 8.0 | 11.3 | 0.00 | 0.00 | 0.00 | ||
| 20260507211103 | 14 | 292 | 4.8 | 9.7 | 0.00 | 0.00 | 0.00 | ||
| 20260507210702 | 14 | 292 | 4.8 | 9.7 | 0.00 | 0.00 | 0.00 | ||
| 20260507210301 | 14 | 292 | 3.2 | 6.4 | 0.00 | 0.00 | 0.00 | ||
| 20260507205858 | 14 | 299 | 4.8 | 9.7 | 0.00 | 0.00 | 0.00 | ||
| 20260507205457 | 14 | 299 | 4.8 | 9.7 | 0.00 | 0.00 | 0.00 | ||
| 20260507205056 | 14 | 315 | 3.2 | 6.4 | 0.00 | 0.00 | 0.00 | ||
| 20260507204654 | 15 | 307 | 4.8 | 6.4 | 0.00 | 0.00 | 0.00 | ||
| 20260507204253 | 15 | 299 | 3.2 | 9.7 | 0.00 | 0.00 | 0.00 | ||
| 20260507203851 | 15 | 316 | 4.8 | 6.4 | 0.00 | 0.00 | 0.00 | ||
| 20260507203449 | 15 | 292 | 3.2 | 3.2 | 0.00 | 0.00 | 0.00 | ||
| 20260507203041 | 15 | 309 | 4.8 | 8.0 | 0.00 | 0.00 | 0.00 | ||
| 20260507202639 | 15 | 325 | 3.2 | 8.0 | 0.00 | 0.00 | 0.00 | ||
| 20260507202237 | 15 | 315 | 4.8 | 8.0 | 0.00 | 0.00 | 0.00 | ||
| 20260507201836 | 15 | 315 | 4.8 | 9.7 | 0.00 | 0.00 | 0.00 | ||
| 20260507201434 | 15 | 292 | 1.6 | 6.4 | 0.00 | 0.00 | 0.00 | ||
| 20260507201032 | 15 | 307 | 3.2 | 8.0 | 0.00 | 0.00 | 0.00 | ||
| 20260507200629 | 15 | 338 | 1.6 | 4.8 | 0.00 | 0.00 | 0.00 | ||
| 20260507200228 | 15 | 338 | 0.0 | 3.2 | 0.00 | 0.00 | 0.00 | ||
| 20260507195827 | 15 | 338 | 0.0 | 0.0 | 0.00 | 0.00 | 0.00 | ||
| 20260507195426 | 15 | 338 | 0.0 | 3.2 | 0.00 | 0.00 | 0.00 | ||
| 20260507195016 | 15 | 338 | 0.0 | 3.2 | 0.00 | 0.00 | 0.00 | ||
| 20260507194615 | 15 | 338 | 0.0 | 0.0 | 0.00 | 0.00 | 0.00 | ||
| 20260507194214 | 15 | 338 | 0.0 | 3.2 | 0.00 | 0.00 | 0.00 | ||
| 20260507193813 | 14 | 343 | 3.2 | 8.0 | 0.00 | 0.00 | 0.00 | ||
| 20260507193411 | 15 | 338 | 3.2 | 6.4 | 0.00 | 0.00 | 0.00 | ||
| 20260507193008 | 15 | 340 | 4.8 | 6.4 | 0.00 | 0.00 | 0.00 | ||
| 20260507192607 | 15 | 345 | 4.8 | 6.4 | 0.00 | 0.00 | 0.00 | ||
| 20260507192206 | 15 | 316 | 4.8 | 9.7 | 0.00 | 0.00 | 0.00 | ||
| 20260507191805 | 15 | 351 | 3.2 | 8.0 | 0.00 | 0.00 | 0.00 | ||
| 20260507191402 | 15 | 342 | 4.8 | 9.7 | 0.00 | 0.00 | 0.00 | ||
| 20260507190954 | 15 | 345 | 4.8 | 6.4 | 0.00 | 0.00 | 0.00 | ||
| 20260507190552 | 15 | 304 | 3.2 | 12.9 | 0.00 | 0.00 | 0.00 | ||
| 20260507190151 | 14 | 324 | 6.4 | 11.3 | 0.00 | 0.00 | 0.00 | ||
| 20260507185749 | 15 | 328 | 6.4 | 12.9 | 0.00 | 0.00 | 0.00 | ||
| 20260507185347 | 16 | 306 | 9.7 | 16.1 | 0.00 | 0.00 | 0.00 | ||
| 20260507184946 | 16 | 318 | 9.7 | 16.1 | 0.00 | 0.00 | 0.00 | ||
| 20260507184544 | 16 | 297 | 6.4 | 16.1 | 0.00 | 0.00 | 0.00 | ||
| 20260507184142 | 16 | 279 | 6.4 | 9.7 | 0.00 | 0.00 | 0.00 | ||
| 20260507183741 | 16 | 275 | 6.4 | 14.5 | 0.00 | 0.00 | 0.00 | ||
| 20260507183339 | 16 | 296 | 9.7 | 16.1 | 0.00 | 0.00 | 0.00 | ||
| 20260507182931 | 17 | 136 | 6.4 | 9.7 | 0.00 | 0.00 | 0.00 | ||
| 20260507182529 | 17 | 138 | 6.4 | 9.7 | 0.00 | 0.00 | 0.00 | ||
| 20260507182127 | 17 | 145 | 6.4 | 11.3 | 0.00 | 0.00 | 0.00 | ||
| 20260507181726 | 17 | 144 | 4.8 | 8.0 | 0.00 | 0.00 | 0.00 | ||
| 20260507181324 | 17 | 144 | 6.4 | 11.3 | 0.00 | 0.00 | 0.00 | ||
| 20260507180923 | 17 | 157 | 8.0 | 9.7 | 0.00 | 0.00 | 0.00 | ||
| 20260507180521 | 17 | 159 | 11.3 | 16.1 | 0.00 | 0.00 | 0.00 | ||
| 20260507180119 | 17 | 153 | 8.0 | 12.9 | 0.00 | 0.00 | 0.00 | ||
| 20260507175719 | 18 | 176 | 9.7 | 12.9 | 0.00 | 0.00 | 0.00 | ||
| 20260507175317 | 18 | 157 | 8.0 | 11.3 | 0.00 | 0.00 | 0.00 | ||
| 20260507174908 | 18 | 135 | 3.2 | 6.4 | 0.00 | 0.00 | 0.00 | ||
| 20260507174506 | 18 | 135 | 1.6 | 6.4 | 0.00 | 0.00 | 0.00 | ||
| 20260507174105 | 17 | 135 | 0.0 | 1.6 | 0.00 | 0.00 | 0.00 | ||
| 20260507173704 | 18 | 135 | 3.2 | 4.8 | 0.00 | 0.00 | 0.00 | ||
| 20260507173301 | 18 | 139 | 8.0 | 12.9 | 0.00 | 0.00 | 0.00 | ||
| 20260507172900 | 18 | 135 | 6.4 | 12.9 | 0.00 | 0.00 | 0.00 | ||
| 20260507172458 | 18 | 128 | 9.7 | 12.9 | 0.00 | 0.00 | 0.00 | ||
| 20260507172057 | 19 | 132 | 8.0 | 11.3 | 0.00 | 0.00 | 0.00 | ||
| 20260507171656 | 18 | 121 | 6.4 | 9.7 | 0.00 | 0.00 | 0.00 | ||
| 20260507171253 | 19 | 110 | 6.4 | 9.7 | 0.00 | 0.00 | 0.00 | ||
| 20260507170845 | 19 | 135 | 8.0 | 14.5 | 0.00 | 0.00 | 0.00 | ||
| 20260507170443 | 18 | 136 | 8.0 | 16.1 | 0.00 | 0.00 | 0.00 | ||
| 20260507165238 | 18 | 140 | 9.7 | 16.1 | 0.00 | 0.00 | 0.00 | ||
| 20260507164837 | 18 | 138 | 9.7 | 12.9 | 0.00 | 0.00 | 0.00 | ||
| 20260507164436 | 18 | 136 | 9.7 | 14.5 | 0.00 | 0.00 | 0.00 | ||
| 20260507164033 | 18 | 144 | 11.3 | 16.1 | 0.00 | 0.00 | 0.00 | ||
| 20260507163632 | 18 | 145 | 11.3 | 19.3 | 0.00 | 0.00 | 0.00 | ||
| 20260507163231 | 18 | 146 | 12.9 | 20.9 | 0.00 | 0.00 | 0.00 | ||
| 20260507162823 | 18 | 145 | 11.3 | 17.7 | 0.00 | 0.00 | 0.00 | ||
| 20260507162420 | 18 | 147 | 11.3 | 17.7 | 0.00 | 0.00 | 0.00 | ||
| 20260507162019 | 18 | 141 | 8.0 | 12.9 | 0.00 | 0.00 | 0.00 | ||
| 20260507161618 | 18 | 135 | 6.4 | 9.7 | 0.00 | 0.00 | 0.00 | ||
| 20260507161216 | 18 | 136 | 9.7 | 14.5 | 0.00 | 0.00 | 0.00 | ||
| 20260507160815 | 18 | 139 | 8.0 | 12.9 | 0.00 | 0.00 | 0.00 | ||
| 20260507160412 | 18 | 138 | 9.7 | 14.5 | 0.00 | 0.00 | 0.00 | ||
| 20260507155610 | 18 | 136 | 9.7 | 16.1 | 0.00 | 0.00 | 0.00 | ||
| 20260507155208 | 18 | 135 | 8.0 | 12.9 | 0.00 | 0.00 | 0.00 | ||
| 20260507154759 | 19 | 126 | 11.3 | 16.1 | 0.00 | 0.00 | 0.00 | ||
| 20260507154357 | 20 | 139 | 6.4 | 11.3 | 0.00 | 0.00 | 0.00 | ||
| 20260507153956 | 20 | 175 | 6.4 | 9.7 | 0.00 | 0.00 | 0.00 | ||
| 20260507153555 | 20 | 202 | 6.4 | 9.7 | 0.00 | 0.00 | 0.00 | ||
| 20260507153152 | 20 | 202 | 6.4 | 9.7 | 0.00 | 0.00 | 0.00 | ||
| 20260507152751 | 20 | 202 | 8.0 | 12.9 | 0.00 | 0.00 | 0.00 | ||
| 20260507152349 | 20 | 202 | 9.7 | 16.1 | 0.00 | 0.00 | 0.00 | ||
| 20260507151948 | 20 | 202 | 8.0 | 12.9 | 0.00 | 0.00 | 0.00 | ||
| 20260507151546 | 20 | 211 | 9.7 | 16.1 | 0.00 | 0.00 | 0.00 | ||
| 20260507151144 | 20 | 222 | 8.0 | 12.9 | 0.00 | 0.00 | 0.00 | ||
| 20260507150736 | 20 | 218 | 8.0 | 17.7 | 0.00 | 0.00 | 0.00 | ||
| 20260507150335 | 20 | 220 | 8.0 | 12.9 | 0.00 | 0.00 | 0.00 | ||
| 20260507145934 | 20 | 216 | 9.7 | 17.7 | 0.00 | 0.00 | 0.00 | ||
| 20260507145532 | 20 | 213 | 8.0 | 14.5 | 0.00 | 0.00 | 0.00 | ||
| 20260507145130 | 20 | 230 | 4.8 | 11.3 | 0.00 | 0.00 | 0.00 | ||
| 20260507144729 | 20 | 221 | 8.0 | 14.5 | 0.00 | 0.00 | 0.00 | ||
| 20260507144327 | 20 | 225 | 8.0 | 12.9 | 0.00 | 0.00 | 0.00 | ||
| 20260507143925 | 20 | 234 | 8.0 | 14.5 | 0.00 | 0.00 | 0.00 | ||
| 20260507143524 | 20 | 233 | 9.7 | 14.5 | 0.00 | 0.00 | 0.00 | ||
| 20260507143122 | 20 | 230 | 6.4 | 11.3 | 0.00 | 0.00 | 0.00 | ||
| 20260507142714 | 20 | 240 | 6.4 | 12.9 | 0.00 | 0.00 | 0.00 | ||
| 20260507142311 | 20 | 228 | 6.4 | 14.5 | 0.00 | 0.00 | 0.00 | ||
| 20260507141509 | 20 | 224 | 9.7 | 16.1 | 0.00 | 0.00 | 0.00 | ||
| 20260507141107 | 20 | 215 | 9.7 | 16.1 | 0.00 | 0.00 | 0.00 | ||
| 20260507140705 | 20 | 202 | 6.4 | 11.3 | 0.00 | 0.00 | 0.00 | ||
| 20260507140303 | 21 | 221 | 4.8 | 9.7 | 0.00 | 0.00 | 0.00 | ||
| 20260507135902 | 20 | 225 | 4.8 | 9.7 | 0.00 | 0.00 | 0.00 | ||
| 20260507135059 | 20 | 225 | 4.8 | 9.7 | 0.00 | 0.00 | 0.00 | ||
| 20260507134650 | 20 | 219 | 4.8 | 12.9 | 0.00 | 0.00 | 0.00 | ||
| 20260507134248 | 20 | 212 | 9.7 | 16.1 | 0.00 | 0.00 | 0.00 | ||
| 20260507133847 | 20 | 224 | 8.0 | 12.9 | 0.00 | 0.00 | 0.00 | ||
| 20260507133446 | 20 | 242 | 12.9 | 20.9 | 0.00 | 0.00 | 0.00 | ||
| 20260507133043 | 20 | 218 | 16.1 | 22.5 | 0.00 | 0.00 | 0.00 | ||
| 20260507132642 | 21 | 222 | 9.7 | 14.5 | 0.00 | 0.00 | 0.00 | ||
| 20260507132240 | 21 | 241 | 9.7 | 17.7 | 0.00 | 0.00 | 0.00 | ||
| 20260507131840 | 21 | 245 | 11.3 | 14.5 | 0.00 | 0.00 | 0.00 | ||
| 20260507131437 | 21 | 255 | 8.0 | 14.5 | 0.00 | 0.00 | 0.00 | ||
| 20260507131035 | 21 | 246 | 9.7 | 16.1 | 0.00 | 0.00 | 0.00 | ||
| 20260507130627 | 21 | 237 | 12.9 | 17.7 | 0.00 | 0.00 | 0.00 | ||
| 20260507130226 | 21 | 241 | 8.0 | 11.3 | 0.00 | 0.00 | 0.00 | ||
| 20260507125824 | 21 | 253 | 9.7 | 14.5 | 0.00 | 0.00 | 0.00 | ||
| 20260507125422 | 21 | 226 | 9.7 | 16.1 | 0.00 | 0.00 | 0.00 | ||
| 20260507125021 | 21 | 256 | 9.7 | 16.1 | 0.00 | 0.00 | 0.00 | ||
| 20260507124620 | 21 | 244 | 12.9 | 16.1 | 0.00 | 0.00 | 0.00 | ||
| 20260507124218 | 21 | 222 | 8.0 | 14.5 | 0.00 | 0.00 | 0.00 | ||
| 20260507123816 | 21 | 223 | 8.0 | 11.3 | 0.00 | 0.00 | 0.00 | ||
| 20260507123415 | 21 | 262 | 11.3 | 20.9 | 0.00 | 0.00 | 0.00 | ||
| 20260507123013 | 21 | 277 | 14.5 | 20.9 | 0.00 | 0.00 | 0.00 | ||
| 20260507122605 | 21 | 262 | 11.3 | 17.7 | 0.00 | 0.00 | 0.00 | ||
| 20260507122202 | 21 | 269 | 12.9 | 19.3 | 0.00 | 0.00 | 0.00 | ||
| 20260507121801 | 21 | 270 | 12.9 | 19.3 | 0.00 | 0.00 | 0.00 | ||
| 20260507121400 | 21 | 261 | 9.7 | 16.1 | 0.00 | 0.00 | 0.00 | ||
| 20260507120958 | 21 | 271 | 9.7 | 14.5 | 0.00 | 0.00 | 0.00 | ||
| 20260507120556 | 21 | 288 | 12.9 | 17.7 | 0.00 | 0.00 | 0.00 | ||
| 20260507120154 | 21 | 272 | 11.3 | 16.1 | 0.00 | 0.00 | 0.00 | ||
| 20260507115753 | 21 | 273 | 12.9 | 22.5 | 0.00 | 0.00 | 0.00 | ||
| 20260507115352 | 21 | 258 | 9.7 | 17.7 | 0.00 | 0.00 | 0.00 | ||
| 20260507114949 | 21 | 228 | 11.3 | 19.3 | 0.00 | 0.00 | 0.00 | ||
| 20260507114541 | 21 | 240 | 12.9 | 20.9 | 0.00 | 0.00 | 0.00 | ||
| 20260507114139 | 21 | 232 | 9.7 | 16.1 | 0.00 | 0.00 | 0.00 | ||
| 20260507113738 | 21 | 263 | 6.4 | 12.9 | 0.00 | 0.00 | 0.00 | ||
| 20260507113337 | 21 | 246 | 9.7 | 16.1 | 0.00 | 0.00 | 0.00 | ||
| 20260507112934 | 21 | 228 | 14.5 | 25.7 | 0.00 | 0.00 | 0.00 | ||
| 20260507112533 | 21 | 247 | 11.3 | 17.7 | 0.00 | 0.00 | 0.00 | ||
| 20260507112131 | 21 | 243 | 11.3 | 17.7 | 0.00 | 0.00 | 0.00 | ||
| 20260507111730 | 21 | 260 | 12.9 | 20.9 | 0.00 | 0.00 | 0.00 | ||
| 20260507111328 | 21 | 244 | 16.1 | 20.9 | 0.00 | 0.00 | 0.00 | ||
| 20260507110926 | 22 | 259 | 6.4 | 11.3 | 0.00 | 0.00 | 0.00 | ||
| 20260507110518 | 22 | 249 | 8.0 | 14.5 | 0.00 | 0.00 | 0.00 | ||
| 20260507110117 | 21 | 271 | 9.7 | 14.5 | 0.00 | 0.00 | 0.00 | ||
| 20260507105313 | 21 | 246 | 12.9 | 17.7 | 0.00 | 0.00 | 0.00 | ||
| 20260507104912 | 21 | 271 | 16.1 | 19.3 | 0.00 | 0.00 | 0.00 | ||
| 20260507104511 | 22 | 255 | 11.3 | 22.5 | 0.00 | 0.00 | 0.00 | ||
| 20260507104108 | 21 | 259 | 12.9 | 17.7 | 0.00 | 0.00 | 0.00 | ||
| 20260507103707 | 21 | 281 | 12.9 | 20.9 | 0.00 | 0.00 | 0.00 | ||
| 20260507103306 | 21 | 254 | 12.9 | 17.7 | 0.00 | 0.00 | 0.00 | ||
| 20260507102904 | 21 | 242 | 14.5 | 22.5 | 0.00 | 0.00 | 0.00 | ||
| 20260507102456 | 22 | 261 | 9.7 | 12.9 | 0.00 | 0.00 | 0.00 | ||
| 20260507102053 | 21 | 272 | 9.7 | 16.1 | 0.00 | 0.00 | 0.00 | ||
| 20260507101652 | 21 | 250 | 12.9 | 19.3 | 0.00 | 0.00 | 0.00 | ||
| 20260507101251 | 21 | 263 | 9.7 | 16.1 | 0.00 | 0.00 | 0.00 | ||
| 20260507100849 | 21 | 260 | 12.9 | 24.1 | 0.00 | 0.00 | 0.00 | ||
| 20260507100447 | 20 | 268 | 9.7 | 14.5 | 0.00 | 0.00 | 0.00 | ||
| 20260507100045 | 21 | 258 | 11.3 | 19.3 | 0.00 | 0.00 | 0.00 | ||
| 20260507095644 | 20 | 291 | 12.9 | 16.1 | 0.00 | 0.00 | 0.00 | ||
| 20260507095243 | 20 | 265 | 8.0 | 14.5 | 0.00 | 0.00 | 0.00 | ||
| 20260507094840 | 20 | 283 | 16.1 | 22.5 | 0.00 | 0.00 | 0.00 | ||
| 20260507094432 | 20 | 260 | 12.9 | 19.3 | 0.00 | 0.00 | 0.00 | ||
| 20260507094030 | 20 | 254 | 14.5 | 19.3 | 0.00 | 0.00 | 0.00 | ||
| 20260507093629 | 20 | 281 | 9.7 | 16.1 | 0.00 | 0.00 | 0.00 | ||
| 20260507093227 | 20 | 265 | 11.3 | 16.1 | 0.00 | 0.00 | 0.00 | ||
| 20260507092825 | 20 | 263 | 12.9 | 17.7 | 0.00 | 0.00 | 0.00 | ||
| 20260507092431 | 20 | 249 | 11.3 | 16.1 | 0.00 | 0.00 | 0.00 | ||
| 20260507092424 | 20 | 249 | 11.3 | 16.1 | 0.00 | 0.00 | 0.00 | ||
| 20260507092023 | 21 | 252 | 8.0 | 11.3 | 0.00 | 0.00 | 0.00 | ||
| 20260507091622 | 21 | 248 | 8.0 | 12.9 | 0.00 | 0.00 | 0.00 | ||
| 20260507091219 | 20 | 260 | 12.9 | 16.1 | 0.00 | 0.00 | 0.00 | ||
| 20260507090818 | 21 | 262 | 9.7 | 19.3 | 0.00 | 0.00 | 0.00 | ||
| 20260507090410 | 21 | 256 | 6.4 | 12.9 | 0.00 | 0.00 | 0.00 | ||
| 20260507090008 | 21 | 254 | 9.7 | 14.5 | 0.00 | 0.00 | 0.00 | ||
| 20260507085606 | 20 | 236 | 14.5 | 19.3 | 0.00 | 0.00 | 0.00 | ||
| 20260507085205 | 20 | 248 | 11.3 | 16.1 | 0.00 | 0.00 | 0.00 | ||
| 20260507084803 | 20 | 236 | 12.9 | 17.7 | 0.00 | 0.00 | 0.00 | ||
| 20260507084402 | 20 | 261 | 11.3 | 19.3 | 0.00 | 0.00 | 0.00 | ||
| 20260507083959 | 20 | 251 | 6.4 | 9.7 | 0.00 | 0.00 | 0.00 | ||
| 20260507083558 | 20 | 270 | 12.9 | 19.3 | 0.00 | 0.00 | 0.00 | ||
| 20260507083157 | 20 | 241 | 8.0 | 16.1 | 0.00 | 0.00 | 0.00 | ||
| 20260507082755 | 20 | 214 | 14.5 | 25.7 | 0.00 | 0.00 | 0.00 | ||
| 20260507082346 | 20 | 224 | 12.9 | 19.3 | 0.00 | 0.00 | 0.00 | ||
| 20260507081944 | 20 | 229 | 14.5 | 20.9 | 0.00 | 0.00 | 0.00 | ||
| 20260507081543 | 20 | 235 | 11.3 | 19.3 | 0.00 | 0.00 | 0.00 | ||
| 20260507081142 | 20 | 233 | 8.0 | 16.1 | 0.00 | 0.00 | 0.00 | ||
| 20260507080740 | 20 | 240 | 16.1 | 22.5 | 0.00 | 0.00 | 0.00 | ||
| 20260507080338 | 20 | 242 | 11.3 | 17.7 | 0.00 | 0.00 | 0.00 | ||
| 20260507075936 | 20 | 264 | 6.4 | 14.5 | 0.00 | 0.00 | 0.00 | ||
| 20260507075535 | 19 | 282 | 8.0 | 14.5 | 0.00 | 0.00 | 0.00 | ||
| 20260507075135 | 20 | 266 | 11.3 | 14.5 | 0.00 | 0.00 | 0.00 | ||
| 20260507074731 | 20 | 275 | 4.8 | 9.7 | 0.00 | 0.00 | 0.00 | ||
| 20260507074324 | 20 | 277 | 8.0 | 16.1 | 0.00 | 0.00 | 0.00 | ||
| 20260507073922 | 18 | 276 | 8.0 | 11.3 | 0.00 | 0.00 | 0.00 | ||
| 20260507073521 | 18 | 252 | 6.4 | 14.5 | 0.00 | 0.00 | 0.00 | ||
| 20260507073119 | 18 | 260 | 14.5 | 19.3 | 0.00 | 0.00 | 0.00 | ||
| 20260507072717 | 18 | 285 | 11.3 | 16.1 | 0.00 | 0.00 | 0.00 | ||
| 20260507072316 | 18 | 269 | 9.7 | 16.1 | 0.00 | 0.00 | 0.00 | ||
| 20260507071914 | 18 | 256 | 12.9 | 17.7 | 0.00 | 0.00 | 0.00 | ||
| 20260507071512 | 18 | 263 | 12.9 | 16.1 | 0.00 | 0.00 | 0.00 | ||
| 20260507071111 | 18 | 264 | 14.5 | 22.5 | 0.00 | 0.00 | 0.00 | ||
| 20260507070709 | 18 | 267 | 17.7 | 27.4 | 0.00 | 0.00 | 0.00 | ||
| 20260507070301 | 20 | 235 | 8.0 | 14.5 | 0.00 | 0.00 | 0.00 | ||
| 20260507065859 | 19 | 250 | 8.0 | 12.9 | 0.00 | 0.00 | 0.00 | ||
| 20260507065457 | 18 | 255 | 11.3 | 16.1 | 0.00 | 0.00 | 0.00 | ||
| 20260507065056 | 19 | 256 | 9.7 | 17.7 | 0.00 | 0.00 | 0.00 | ||
| 20260507064654 | 18 | 253 | 9.7 | 12.9 | 0.00 | 0.00 | 0.00 | ||
| 20260507064253 | 18 | 262 | 11.3 | 16.1 | 0.00 | 0.00 | 0.00 | ||
| 20260507063850 | 18 | 268 | 9.7 | 14.5 | 0.00 | 0.00 | 0.00 | ||
| 20260507063449 | 19 | 248 | 6.4 | 11.3 | 0.00 | 0.00 | 0.00 | ||
| 20260507063048 | 18 | 249 | 4.8 | 11.3 | 0.00 | 0.00 | 0.00 | ||
| 20260507062646 | 18 | 257 | 9.7 | 14.5 | 0.00 | 0.00 | 0.00 | ||
| 20260507062237 | 18 | 269 | 8.0 | 11.3 | 0.00 | 0.00 | 0.00 | ||
| 20260507061835 | 18 | 270 | 3.2 | 6.4 | 0.00 | 0.00 | 0.00 | ||
| 20260507061434 | 18 | 273 | 6.4 | 9.7 | 0.00 | 0.00 | 0.00 | ||
| 20260507061033 | 19 | 231 | 4.8 | 9.7 | 0.00 | 0.00 | 0.00 | ||
| 20260507060630 | 18 | 262 | 8.0 | 12.9 | 0.00 | 0.00 | 0.00 | ||
| 20260507060229 | 18 | 244 | 4.8 | 9.7 | 0.00 | 0.00 | 0.00 | ||
| 20260507055827 | 19 | 244 | 6.4 | 8.0 | 0.00 | 0.00 | 0.00 | ||
| 20260507055426 | 19 | 248 | 3.2 | 8.0 | 0.00 | 0.00 | 0.00 | ||
| 20260507055025 | 19 | 241 | 6.4 | 11.3 | 0.00 | 0.00 | 0.00 | ||
| 20260507054622 | 18 | 248 | 4.8 | 8.0 | 0.00 | 0.00 | 0.00 | ||
| 20260507054214 | 19 | 248 | 3.2 | 8.0 | 0.00 | 0.00 | 0.00 | ||
| 20260507053812 | 18 | 225 | 4.8 | 8.0 | 0.00 | 0.00 | 0.00 | ||
| 20260507053410 | 18 | 225 | 3.2 | 8.0 | 0.00 | 0.00 | 0.00 | ||
| 20260507053008 | 18 | 225 | 3.2 | 6.4 | 0.00 | 0.00 | 0.00 | ||
| 20260507052606 | 18 | 225 | 4.8 | 8.0 | 0.00 | 0.00 | 0.00 | ||
| 20260507052205 | 18 | 225 | 4.8 | 8.0 | 0.00 | 0.00 | 0.00 | ||
| 20260507051803 | 18 | 225 | 4.8 | 9.7 | 0.00 | 0.00 | 0.00 | ||
| 20260507051401 | 18 | 225 | 4.8 | 8.0 | 0.00 | 0.00 | 0.00 | ||
| 20260507051000 | 18 | 165 | 3.2 | 6.4 | 0.00 | 0.00 | 0.00 | ||
| 20260507050558 | 18 | 157 | 4.8 | 4.8 | 0.00 | 0.00 | 0.00 | ||
| 20260507050150 | 18 | 157 | 3.2 | 6.4 | 0.00 | 0.00 | 0.00 | ||
| 20260507045747 | 19 | 157 | 1.6 | 6.4 | 0.00 | 0.00 | 0.00 | ||
| 20260507045346 | 19 | 157 | 4.8 | 6.4 | 0.00 | 0.00 | 0.00 | ||
| 20260507044945 | 19 | 157 | 3.2 | 4.8 | 0.00 | 0.00 | 0.00 | ||
| 20260507044543 | 19 | 157 | 3.2 | 4.8 | 0.00 | 0.00 | 0.00 | ||
| 20260507044142 | 19 | 157 | 4.8 | 8.0 | 0.00 | 0.00 | 0.00 | ||
| 20260507043739 | 18 | 157 | 3.2 | 6.4 | 0.00 | 0.00 | 0.00 | ||
| 20260507043338 | 18 | 154 | 4.8 | 11.3 | 0.00 | 0.00 | 0.00 | ||
| 20260507042937 | 17 | 135 | 4.8 | 6.4 | 0.00 | 0.00 | 0.00 | ||
| 20260507042535 | 17 | 135 | 4.8 | 6.4 | 0.00 | 0.00 | 0.00 | ||
| 20260507042126 | 17 | 146 | 9.7 | 14.5 | 0.00 | 0.00 | 0.00 | ||
| 20260507041724 | 17 | 135 | 3.2 | 8.0 | 0.00 | 0.00 | 0.00 | ||
| 20260507041323 | 17 | 135 | 4.8 | 6.4 | 0.00 | 0.00 | 0.00 | ||
| 20260507040922 | 17 | 202 | 6.4 | 9.7 | 0.00 | 0.00 | 0.00 | ||
| 20260507040519 | 16 | 67 | 1.6 | 3.2 | 0.00 | 0.00 | 0.00 | ||
| 20260507040118 | 16 | 67 | 0.0 | 1.6 | 0.00 | 0.00 | 0.00 | ||
| 20260507035716 | 16 | 67 | 0.0 | 0.0 | 0.00 | 0.00 | 0.00 | ||
| 20260507035315 | 16 | 67 | 3.2 | 6.4 | 0.00 | 0.00 | 0.00 | ||
| 20260507034913 | 16 | 21 | 8.0 | 11.3 | 0.00 | 0.00 | 0.00 | ||
| 20260507034511 | 16 | 7 | 6.4 | 8.0 | 0.00 | 0.00 | 0.00 | ||
| 20260507034103 | 16 | 45 | 6.4 | 9.7 | 0.00 | 0.00 | 0.00 | ||
| 20260507033701 | 16 | 45 | 6.4 | 9.7 | 0.00 | 0.00 | 0.00 | ||
| 20260507033300 | 16 | 29 | 11.3 | 12.9 | 0.00 | 0.00 | 0.00 | ||
| 20260507032858 | 16 | 45 | 3.2 | 6.4 | 0.00 | 0.00 | 0.00 | ||
| 20260507032456 | 16 | 41 | 4.8 | 11.3 | 0.00 | 0.00 | 0.00 | ||
| 20260507032055 | 16 | 14 | 8.0 | 12.9 | 0.00 | 0.00 | 0.00 | ||
| 20260507031653 | 16 | 0 | 8.0 | 11.3 | 0.00 | 0.00 | 0.00 | ||
| 20260507031251 | 16 | 135 | 3.2 | 6.4 | 0.00 | 0.00 | 0.00 | ||
| 20260507030850 | 16 | 135 | 4.8 | 6.4 | 0.00 | 0.00 | 0.00 | ||
| 20260507030448 | 16 | 135 | 1.6 | 4.8 | 0.00 | 0.00 | 0.00 | ||
| 20260507030040 | 16 | 135 | 0.0 | 0.0 | 0.00 | 0.00 | 0.00 | ||
| 20260507025638 | 16 | 135 | 0.0 | 1.6 | 0.00 | 0.00 | 0.00 | ||
| 20260507025236 | 17 | 135 | 3.2 | 6.4 | 0.00 | 0.00 | 0.00 | ||
| 20260507024835 | 17 | 135 | 4.8 | 9.7 | 0.00 | 0.00 | 0.00 | ||
| 20260507024434 | 17 | 145 | 4.8 | 6.4 | 0.00 | 0.00 | 0.00 | ||
| 20260507024031 | 17 | 157 | 1.6 | 6.4 | 0.00 | 0.00 | 0.00 |